Location: Days
(41.3591°N, 106.7339°W)
Time: 05:47:44
(UTC+00:00)

BEESAT - Visible Passes

Search period start: 28 June 2022 00:00
Search period end: 08 July 2022 00:00
Orbit: 698 x 708 km, 98.6° (Epoch: 27 June)

Date Brightness Start Highest point End Pass type
(mag) Time Alt. Az. Time Alt. Az. Time Alt. Az.
28 Jun ? 03:17:28 10° NNE 03:22:12 59° ESE 03:26:53 10° S visible
28 Jun ? 04:56:33 10° NNW 04:59:25 16° WNW 05:02:17 10° W visible
29 Jun ? 04:00:29 10° N 04:05:06 51° WNW 04:09:43 10° SSW visible
30 Jun ? 04:44:16 10° NNW 04:47:45 21° WNW 04:51:14 10° WSW visible
01 Jul ? 03:48:36 10° N 03:53:21 68° WNW 03:58:04 10° SSW visible
02 Jul ? 04:32:07 10° N 04:36:04 26° WNW 04:40:00 10° WSW visible
03 Jul ? 03:36:45 10° NNE 03:41:34 89° W 03:46:21 10° SSW visible
03 Jul ? 05:17:24 10° NW 05:18:31 11° WNW 05:19:38 10° WNW visible
04 Jul ? 04:20:04 10° N 04:24:22 34° WNW 04:28:38 10° SW visible
05 Jul ? 03:24:58 10° NNE 03:29:45 69° ESE 03:34:30 10° S visible
05 Jul ? 05:04:25 10° NNW 05:06:53 14° WNW 05:09:20 10° W visible
06 Jul ? 04:08:05 10° N 04:12:37 44° WNW 04:17:08 10° SW visible
07 Jul ? 03:13:15 10° NNE 03:17:55 52° E 03:22:34 10° S visible
07 Jul ? 04:52:01 10° NNW 04:55:13 18° WNW 04:58:25 10° WSW visible
